STARLINK-32631, 62235

Orbit data source: Space-Track

STARLINK-32631, 62235 is a payload satellite owned by SpaceX/Seattle (US) in LEO that was launched on Thu, 05 Dec 2024 UTC via an FALCON 9 launch vehicle from the Air Force Western Test Range (AFWTR). Payload-class satellites include a variety of spacecraft equipped with specific instruments for various scientific and technological missions. These include communications satellites like Starlink; space stations such as the ISS; scientific satellites like the Hubble; Earth observation satellites from companies like Planet Labs, Umbra, and HawkEye 360; GPS; miniature CubeSats for education and research; and military/defense satellites.

Loading next visibility...
Identifier
62235, 2024-231T
Orbit
LEO
Country
Flag of USUS
Related business
Manufacturer
SpaceX/Seattle
Mission
Operational Commercial Communications
Bus & Motor
STARLINK V2M, Unknown motor
Mass
730 kg wet, ~700 kg dry
Launch date (UTC)
2024-12-05 (11 months ago)
Launch vehicle
FALCON 9
Launch site
Air Force Western Test Range (AFWTR)
Object type
Payload
Rocket body
Debris
Shape & HBR
Box + 2 Pan, 17.7 m
Radar Cross Section
33.884 m², Large (>1 m²)

Expand to show TLE details & history
Last TLE update: 8 hours ago

TLE from 8 hours ago
0 STARLINK-32631
1 62235U 24231T   25305.66668981  .00012845  00000-0  44532-3 0  9996
2 62235  53.1583  81.3409 0001121  83.1102 139.8523 15.30181061  5956
Epoch: 2025-11-01T16:00Z
TLE epoch observation values (Epoch: 2025-11-01T16:00:01.999Z)
Latitude
-33.26734°
Longitude
9.40264°
Altitude
486.286 km
Speed
7.622 km/s
True Right ascension
19h 22m 25s
True Declination
-33° 06' 13"
Sunlit
Object was in daylight at epoch
Visualization orbit readout
Latitude
Unknown
Longitude
Unknown
Altitude
Unknown
Speed
Unknown
Apparent Right ascension
Unknown
Apparent Declination
Unknown
Sunlit
N/A
Visualization observer readout
Local Sidereal Time
20:01:00
Azimuth
Unknown
Elevation
Unknown
Doppler factor
Unknown
Orbital elements
Apogee altitude
476.297 km
Perigee altitude
474.76 km
Semi-major axis
6,853.665 km
Eccentricity
0.00011
Inclination
53.1583°
RAAN
81.3409°
Arg. of periapsis
83.1102°
True anomaly
139.86058°
Mean anomaly
139.8523°
Eccentric anomaly
139.85644°
Mean motion
3.82524 °/min
Orbital period
94.11 mins
BSTAR
0.00044532
Loading maneuver chart data...
Computing Atmospheric mass density...
Loading historical data...
Loading historical data...
Loading historical data...
Loading historical data...
Loading historical data...
Loading historical data...
Loading historical data...

Documentation

Showing up to 5 results
|